Time,TemperatureF,DewpointF,PressureIn,WindDirection,WindDirectionDegrees,WindSpeedMPH,WindSpeedGustMPH,Humidity,HourlyPrecipIn,Conditions,Clouds,dailyrainin,SoftwareType,DateUTC
2013-04-07 00:02:00,65.0,-99.9,30.08,SSE,168,9.0,12.0,-999,-99.99,,,-99.99,,2013-04-07 05:02:00,
2013-04-07 00:12:00,65.0,-99.9,30.08,SSE,165,10.0,11.0,-999,-99.99,,,-99.99,,2013-04-07 05:12:00,
2013-04-07 00:23:00,65.0,-99.9,30.08,SSE,157,9.0,10.0,-999,-99.99,,,-99.99,,2013-04-07 05:23:00,
2013-04-07 00:34:00,65.0,-99.9,30.08,SSE,168,9.0,12.0,-999,-99.99,,,-99.99,,2013-04-07 05:34:00,
2013-04-07 00:43:00,65.0,-99.9,30.08,SSE,165,9.0,11.0,-999,-99.99,,,-99.99,,2013-04-07 05:43:00,
2013-04-07 00:53:00,65.0,-99.9,30.08,SSE,166,9.0,11.0,-999,-99.99,,,-99.99,,2013-04-07 05:53:00,
2013-04-07 01:02:00,65.0,-99.9,30.08,SSE,164,9.0,11.0,-999,-99.99,,,-99.99,,2013-04-07 06:02:00,
2013-04-07 01:13:00,64.0,-99.9,30.08,SSE,164,9.0,13.0,-999,-99.99,,,-99.99,,2013-04-07 06:13:00,
2013-04-07 01:22:00,64.0,-99.9,30.08,North,-999,-999.0,-999.0,-999,-99.99,,,-99.99,,2013-04-07 06:22:00,
2013-04-07 01:33:00,64.0,-99.9,30.07,SSE,166,10.0,12.0,-999,-99.99,,,-99.99,,2013-04-07 06:33:00,
2013-04-07 01:43:00,64.0,-99.9,30.07,SSE,168,10.0,12.0,-999,-99.99,,,-99.99,,2013-04-07 06:43:00,
2013-04-07 01:53:00,64.0,-99.9,30.07,South,170,10.0,11.0,-999,-99.99,,,-99.99,,2013-04-07 06:53:00,
2013-04-07 02:02:00,64.0,-99.9,30.07,SSE,168,10.0,12.0,-999,-99.99,,,-99.99,,2013-04-07 07:02:00,
2013-04-07 02:12:00,64.0,-99.9,30.06,SSE,158,11.0,14.0,-999,-99.99,,,-99.99,,2013-04-07 07:12:00,
2013-04-07 02:22:00,64.0,-99.9,30.05,SSE,163,12.0,14.0,-999,-99.99,,,-99.99,,2013-04-07 07:22:00,
2013-04-07 02:33:00,64.0,-99.9,30.05,SSE,159,10.0,13.0,-999,-99.99,,,-99.99,,2013-04-07 07:33:00,
2013-04-07 02:42:00,64.0,-99.9,30.05,SSE,161,10.0,12.0,-999,-99.99,,,-99.99,,2013-04-07 07:42:00,
2013-04-07 02:52:00,64.0,-99.9,30.05,SSE,163,10.0,12.0,-999,-99.99,,,-99.99,,2013-04-07 07:52:00,
2013-04-07 03:02:00,64.0,-99.9,30.04,SSE,161,10.0,12.0,-999,-99.99,,,-99.99,,2013-04-07 08:02:00,
2013-04-07 03:13:00,64.0,-99.9,30.04,SSE,161,10.0,12.0,-999,-99.99,,,-99.99,,2013-04-07 08:13:00,
2013-04-07 03:23:00,64.0,-99.9,30.04,SSE,150,8.0,11.0,-999,-99.99,,,-99.99,,2013-04-07 08:23:00,
2013-04-07 03:33:00,64.0,-99.9,30.04,SSE,154,9.0,11.0,-999,-99.99,,,-99.99,,2013-04-07 08:33:00,
2013-04-07 03:43:00,64.0,-99.9,30.04,SSE,151,10.0,12.0,-999,-99.99,,,-99.99,,2013-04-07 08:43:00,
2013-04-07 03:53:00,64.0,-99.9,30.04,North,-999,-999.0,-999.0,-999,-99.99,,,-99.99,,2013-04-07 08:53:00,
2013-04-07 04:02:00,64.0,-99.9,30.04,North,-999,-999.0,-999.0,-999,-99.99,,,-99.99,,2013-04-07 09:02:00,
2013-04-07 04:13:00,64.0,-99.9,30.04,SSE,150,8.0,9.0,-999,-99.99,,,-99.99,,2013-04-07 09:13:00,
2013-04-07 04:23:00,64.0,-99.9,30.05,North,-999,-999.0,-999.0,-999,-99.99,,,-99.99,,2013-04-07 09:23:00,
2013-04-07 04:34:00,64.0,-99.9,30.05,SSE,151,7.0,10.0,-999,-99.99,,,-99.99,,2013-04-07 09:34:00,
2013-04-07 04:46:00,64.0,-99.9,30.05,SSE,149,7.0,9.0,-999,-99.99,,,-99.99,,2013-04-07 09:46:00,
2013-04-07 04:54:00,64.0,-99.9,30.05,North,-999,-999.0,-999.0,-999,-99.99,,,-99.99,,2013-04-07 09:54:00,
2013-04-07 05:05:00,64.0,-99.9,30.05,SSE,147,6.0,7.0,-999,-99.99,,,-99.99,,2013-04-07 10:05:00,
2013-04-07 05:14:00,64.0,-99.9,30.05,SSE,151,6.0,7.0,-999,-99.99,,,-99.99,,2013-04-07 10:14:00,
2013-04-07 05:23:00,64.0,-99.9,30.05,SE,146,8.0,9.0,-999,-99.99,,,-99.99,,2013-04-07 10:23:00,
2013-04-07 05:34:00,64.0,-99.9,30.05,SE,144,7.0,8.0,-999,-99.99,,,-99.99,,2013-04-07 10:34:00,
2013-04-07 05:44:00,63.0,-99.9,30.05,SE,139,5.0,7.0,-999,-99.99,,,-99.99,,2013-04-07 10:44:00,
2013-04-07 05:54:00,64.0,-99.9,30.05,North,-999,-999.0,-999.0,-999,-99.99,,,-99.99,,2013-04-07 10:54:00,
2013-04-07 06:03:00,64.0,-99.9,30.06,SE,137,5.0,8.0,-999,-99.99,,,-99.99,,2013-04-07 11:03:00,
2013-04-07 06:13:00,64.0,-99.9,30.06,SE,138,5.0,7.0,-999,-99.99,,,-99.99,,2013-04-07 11:13:00,
2013-04-07 06:23:00,63.0,-99.9,30.06,North,-999,-999.0,-999.0,-999,-99.99,,,-99.99,,2013-04-07 11:23:00,
2013-04-07 06:33:00,61.0,-99.9,30.06,East,91,4.0,4.0,-999,-99.99,,,-99.99,,2013-04-07 11:33:00,
2013-04-07 06:43:00,60.0,-99.9,30.07,ENE,67,3.0,4.0,-999,-99.99,,,-99.99,,2013-04-07 11:43:00,
2013-04-07 06:53:00,59.0,-99.9,30.07,North,-999,-999.0,-999.0,-999,-99.99,,,-99.99,,2013-04-07 11:53:00,
2013-04-07 07:03:00,58.0,-99.9,30.07,ENE,57,4.0,5.0,-999,-99.99,,,-99.99,,2013-04-07 12:03:00,
2013-04-07 07:13:00,58.0,-99.9,30.07,ENE,70,5.0,5.0,-999,-99.99,,,-99.99,,2013-04-07 12:13:00,
2013-04-07 07:23:00,58.0,-99.9,30.08,ENE,64,5.0,6.0,-999,-99.99,,,-99.99,,2013-04-07 12:23:00,
2013-04-07 07:35:00,58.0,-99.9,30.08,ENE,69,6.0,7.0,-999,-99.99,,,-99.99,,2013-04-07 12:35:00,
2013-04-07 07:43:00,58.0,-99.9,30.08,ENE,73,6.0,7.0,-999,-99.99,,,-99.99,,2013-04-07 12:43:00,
2013-04-07 07:54:00,59.0,-99.9,30.09,ENE,68,7.0,8.0,-999,-99.99,,,-99.99,,2013-04-07 12:54:00,
2013-04-07 08:05:00,59.0,-99.9,30.09,ENE,74,7.0,10.0,-999,-99.99,,,-99.99,,2013-04-07 13:05:00,
2013-04-07 08:13:00,60.0,-99.9,30.09,ENE,76,8.0,10.0,-999,-99.99,,,-99.99,,2013-04-07 13:13:00,
2013-04-07 08:23:00,60.0,-99.9,30.10,ENE,74,8.0,10.0,-999,-99.99,,,-99.99,,2013-04-07 13:23:00,
2013-04-07 08:33:00,61.0,-99.9,30.09,East,81,9.0,11.0,-999,-99.99,,,-99.99,,2013-04-07 13:33:00,
2013-04-07 08:43:00,62.0,-99.9,30.10,ENE,75,8.0,10.0,-999,-99.99,,,-99.99,,2013-04-07 13:43:00,
2013-04-07 08:53:00,62.0,-99.9,30.10,North,-999,-999.0,-999.0,-999,-99.99,,,-99.99,,2013-04-07 13:53:00,
2013-04-07 09:03:00,61.0,-99.9,30.11,ENE,66,8.0,11.0,-999,-99.99,,,-99.99,,2013-04-07 14:03:00,
2013-04-07 09:13:00,60.0,-99.9,30.11,ENE,71,8.0,10.0,-999,-99.99,,,-99.99,,2013-04-07 14:13:00,
2013-04-07 09:24:00,61.0,-99.9,30.11,ENE,66,8.0,10.0,-999,-99.99,,,-99.99,,2013-04-07 14:24:00,
2013-04-07 09:45:00,63.0,-99.9,30.11,ENE,75,7.0,9.0,-999,-99.99,,,-99.99,,2013-04-07 14:45:00,
2013-04-07 09:55:00,63.0,-99.9,30.12,East,82,8.0,11.0,-999,-99.99,,,-99.99,,2013-04-07 14:55:00,
2013-04-07 10:04:00,64.0,-99.9,30.12,East,80,9.0,11.0,-999,-99.99,,,-99.99,,2013-04-07 15:04:00,
2013-04-07 10:13:00,65.0,-99.9,30.11,East,94,8.0,10.0,-999,-99.99,,,-99.99,,2013-04-07 15:13:00,
2013-04-07 10:23:00,66.0,-99.9,30.11,East,86,8.0,11.0,-999,-99.99,,,-99.99,,2013-04-07 15:23:00,
2013-04-07 10:35:00,66.0,-99.9,30.12,ESE,115,9.0,13.0,-999,-99.99,,,-99.99,,2013-04-07 15:35:00,
2013-04-07 10:46:00,67.0,-99.9,30.12,ESE,107,10.0,13.0,-999,-99.99,,,-99.99,,2013-04-07 15:46:00,
2013-04-07 10:55:00,67.0,-99.9,30.12,SE,131,8.0,10.0,-999,-99.99,,,-99.99,,2013-04-07 15:55:00,
2013-04-07 11:05:00,67.0,-99.9,30.12,ESE,114,11.0,13.0,-999,-99.99,,,-99.99,,2013-04-07 16:05:00,
2013-04-07 11:14:00,67.0,-99.9,30.12,North,-999,-999.0,-999.0,-999,-99.99,,,-99.99,,2013-04-07 16:14:00,
2013-04-07 11:25:00,67.0,-99.9,30.13,ESE,121,9.0,12.0,-999,-99.99,,,-99.99,,2013-04-07 16:25:00,
2013-04-07 11:34:00,67.0,-99.9,30.13,SE,135,9.0,11.0,-999,-99.99,,,-99.99,,2013-04-07 16:34:00,
2013-04-07 11:44:00,67.0,-99.9,30.13,ESE,110,11.0,14.0,-999,-99.99,,,-99.99,,2013-04-07 16:44:00,
2013-04-07 11:54:00,68.0,-99.9,30.12,North,-999,-999.0,-999.0,-999,-99.99,,,-99.99,,2013-04-07 16:54:00,
2013-04-07 12:05:00,68.0,-99.9,30.12,North,-999,-999.0,-999.0,-999,-99.99,,,-99.99,,2013-04-07 17:05:00,
2013-04-07 12:14:00,68.0,-99.9,30.12,ESE,118,10.0,15.0,-999,-99.99,,,-99.99,,2013-04-07 17:14:00,
2013-04-07 12:24:00,68.0,-99.9,30.12,ESE,122,11.0,13.0,-999,-99.99,,,-99.99,,2013-04-07 17:24:00,
2013-04-07 12:34:00,68.0,-99.9,30.12,SE,129,10.0,14.0,-999,-99.99,,,-99.99,,2013-04-07 17:34:00,
2013-04-07 12:44:00,68.0,-99.9,30.11,North,-999,-999.0,-999.0,-999,-99.99,,,-99.99,,2013-04-07 17:44:00,
2013-04-07 12:54:00,68.0,-99.9,30.11,SE,131,13.0,15.0,-999,-99.99,,,-99.99,,2013-04-07 17:54:00,
2013-04-07 13:03:00,68.0,-99.9,30.10,ESE,123,13.0,17.0,-999,-99.99,,,-99.99,,2013-04-07 18:03:00,
2013-04-07 13:14:00,69.0,-99.9,30.10,SE,126,12.0,16.0,-999,-99.99,,,-99.99,,2013-04-07 18:14:00,
2013-04-07 13:23:00,69.0,-99.9,30.09,North,-999,-999.0,-999.0,-999,-99.99,,,-99.99,,2013-04-07 18:23:00,
2013-04-07 13:33:00,69.0,-99.9,30.09,SE,125,12.0,16.0,-999,-99.99,,,-99.99,,2013-04-07 18:33:00,
2013-04-07 13:44:00,69.0,-99.9,30.09,North,-999,-999.0,-999.0,-999,-99.99,,,-99.99,,2013-04-07 18:44:00,
2013-04-07 13:53:00,69.0,-99.9,30.09,SE,125,12.0,14.0,-999,-99.99,,,-99.99,,2013-04-07 18:53:00,
2013-04-07 14:03:00,69.0,-99.9,30.09,SE,129,12.0,16.0,-999,-99.99,,,-99.99,,2013-04-07 19:03:00,
2013-04-07 14:13:00,69.0,-99.9,30.08,SE,130,10.0,13.0,-999,-99.99,,,-99.99,,2013-04-07 19:13:00,
2013-04-07 14:23:00,70.0,-99.9,30.08,North,-999,-999.0,-999.0,-999,-99.99,,,-99.99,,2013-04-07 19:23:00,
2013-04-07 14:33:00,69.0,-99.9,30.08,SE,131,11.0,14.0,-999,-99.99,,,-99.99,,2013-04-07 19:33:00,
2013-04-07 14:43:00,70.0,-99.9,30.08,SSE,150,10.0,14.0,-999,-99.99,,,-99.99,,2013-04-07 19:43:00,
2013-04-07 14:55:00,69.0,-99.9,30.08,North,-999,-999.0,-999.0,-999,-99.99,,,-99.99,,2013-04-07 19:55:00,
2013-04-07 15:03:00,69.0,-99.9,30.07,SE,131,11.0,12.0,-999,-99.99,,,-99.99,,2013-04-07 20:03:00,
2013-04-07 15:13:00,69.0,-99.9,30.07,SSE,148,10.0,13.0,-999,-99.99,,,-99.99,,2013-04-07 20:13:00,
2013-04-07 15:23:00,69.0,-99.9,30.07,SE,131,11.0,14.0,-999,-99.99,,,-99.99,,2013-04-07 20:23:00,
2013-04-07 15:33:00,69.0,-99.9,30.07,SSE,148,10.0,12.0,-999,-99.99,,,-99.99,,2013-04-07 20:33:00,
2013-04-07 15:44:00,69.0,-99.9,30.06,SE,134,12.0,15.0,-999,-99.99,,,-99.99,,2013-04-07 20:44:00,
2013-04-07 15:55:00,69.0,-99.9,30.06,North,-999,-999.0,-999.0,-999,-99.99,,,-99.99,,2013-04-07 20:55:00,
2013-04-07 16:04:00,69.0,-99.9,30.06,SE,136,11.0,13.0,-999,-99.99,,,-99.99,,2013-04-07 21:04:00,
2013-04-07 16:14:00,69.0,-99.9,30.05,SE,140,11.0,13.0,-999,-99.99,,,-99.99,,2013-04-07 21:14:00,
2013-04-07 16:23:00,69.0,-99.9,30.05,North,-999,-999.0,-999.0,-999,-99.99,,,-99.99,,2013-04-07 21:23:00,
2013-04-07 16:35:00,69.0,-99.9,30.05,SE,134,10.0,12.0,-999,-99.99,,,-99.99,,2013-04-07 21:35:00,
2013-04-07 16:45:00,69.0,-99.9,30.05,SE,138,11.0,14.0,-999,-99.99,,,-99.99,,2013-04-07 21:45:00,
2013-04-07 16:55:00,69.0,-99.9,30.05,North,-999,-999.0,-999.0,-999,-99.99,,,-99.99,,2013-04-07 21:55:00,
2013-04-07 17:05:00,69.0,-99.9,30.04,SE,138,11.0,14.0,-999,-99.99,,,-99.99,,2013-04-07 22:05:00,
2013-04-07 17:15:00,69.0,-99.9,30.04,SE,137,11.0,13.0,-999,-99.99,,,-99.99,,2013-04-07 22:15:00,
2013-04-07 17:24:00,69.0,-99.9,30.03,North,-999,-999.0,-999.0,-999,-99.99,,,-99.99,,2013-04-07 22:24:00,
2013-04-07 17:34:00,69.0,-99.9,30.03,SE,127,11.0,15.0,-999,-99.99,,,-99.99,,2013-04-07 22:34:00,
2013-04-07 17:44:00,69.0,-99.9,30.03,SE,124,12.0,16.0,-999,-99.99,,,-99.99,,2013-04-07 22:44:00,
2013-04-07 17:54:00,69.0,-99.9,30.03,North,-999,-999.0,-999.0,-999,-99.99,,,-99.99,,2013-04-07 22:54:00,
2013-04-07 18:04:00,69.0,-99.9,30.03,SE,125,11.0,14.0,-999,-99.99,,,-99.99,,2013-04-07 23:04:00,
2013-04-07 18:13:00,69.0,-99.9,30.03,SE,126,12.0,15.0,-999,-99.99,,,-99.99,,2013-04-07 23:13:00,
2013-04-07 18:23:00,69.0,-99.9,30.03,SE,131,11.0,13.0,-999,-99.99,,,-99.99,,2013-04-07 23:23:00,
2013-04-07 18:33:00,69.0,-99.9,30.04,SE,137,11.0,14.0,-999,-99.99,,,-99.99,,2013-04-07 23:33:00,
2013-04-07 18:43:00,69.0,-99.9,30.04,SE,127,11.0,13.0,-999,-99.99,,,-99.99,,2013-04-07 23:43:00,
2013-04-07 18:53:00,68.0,-99.9,30.04,North,-999,-999.0,-999.0,-999,-99.99,,,-99.99,,2013-04-07 23:53:00,
2013-04-07 19:03:00,69.0,-99.9,30.03,SE,132,12.0,15.0,-999,-99.99,,,-99.99,,2013-04-08 00:03:00,
2013-04-07 19:13:00,68.0,-99.9,30.03,North,-999,-999.0,-999.0,-999,-99.99,,,-99.99,,2013-04-08 00:13:00,
2013-04-07 19:23:00,68.0,-99.9,30.03,North,-999,-999.0,-999.0,-999,-99.99,,,-99.99,,2013-04-08 00:23:00,
2013-04-07 19:33:00,68.0,-99.9,30.03,ESE,123,9.0,11.0,-999,-99.99,,,-99.99,,2013-04-08 00:33:00,
2013-04-07 19:43:00,68.0,-99.9,30.03,SE,124,10.0,13.0,-999,-99.99,,,-99.99,,2013-04-08 00:43:00,
2013-04-07 19:53:00,68.0,-99.9,30.03,SE,125,10.0,12.0,-999,-99.99,,,-99.99,,2013-04-08 00:53:00,
2013-04-07 20:03:00,67.0,-99.9,30.03,ESE,122,11.0,14.0,-999,-99.99,,,-99.99,,2013-04-08 01:03:00,
2013-04-07 20:13:00,67.0,-99.9,30.03,ESE,123,10.0,15.0,-999,-99.99,,,-99.99,,2013-04-08 01:13:00,
2013-04-07 20:23:00,67.0,-99.9,30.03,North,-999,-999.0,-999.0,-999,-99.99,,,-99.99,,2013-04-08 01:23:00,
2013-04-07 20:34:00,67.0,-99.9,30.03,ESE,123,10.0,15.0,-999,-99.99,,,-99.99,,2013-04-08 01:34:00,
2013-04-07 20:45:00,67.0,-99.9,30.03,SE,128,11.0,13.0,-999,-99.99,,,-99.99,,2013-04-08 01:45:00,
2013-04-07 20:55:00,67.0,-99.9,30.02,North,-999,-999.0,-999.0,-999,-99.99,,,-99.99,,2013-04-08 01:55:00,
2013-04-07 21:03:00,67.0,-99.9,30.02,SE,124,10.0,13.0,-999,-99.99,,,-99.99,,2013-04-08 02:03:00,
2013-04-07 21:12:00,67.0,-99.9,30.02,SE,128,11.0,14.0,-999,-99.99,,,-99.99,,2013-04-08 02:12:00,
2013-04-07 21:22:00,67.0,-99.9,30.02,North,-999,-999.0,-999.0,-999,-99.99,,,-99.99,,2013-04-08 02:22:00,
2013-04-07 21:33:00,67.0,-99.9,30.02,SE,131,12.0,14.0,-999,-99.99,,,-99.99,,2013-04-08 02:33:00,
2013-04-07 21:49:00,67.0,-99.9,30.02,SE,125,11.0,14.0,-999,-99.99,,,-99.99,,2013-04-08 02:49:00,
2013-04-07 21:55:00,67.0,-99.9,30.02,North,-999,-999.0,-999.0,-999,-99.99,,,-99.99,,2013-04-08 02:55:00,
2013-04-07 22:09:00,67.0,-99.9,30.03,SE,124,10.0,13.0,-999,-99.99,,,-99.99,,2013-04-08 03:09:00,
2013-04-07 22:26:00,67.0,-99.9,30.02,North,-999,-999.0,-999.0,-999,-99.99,,,-99.99,,2013-04-08 03:26:00,
2013-04-07 22:37:00,67.0,-99.9,30.02,ESE,122,10.0,16.0,-999,-99.99,,,-99.99,,2013-04-08 03:37:00,
2013-04-07 22:48:00,67.0,-99.9,30.03,SE,124,11.0,14.0,-999,-99.99,,,-99.99,,2013-04-08 03:48:00,
2013-04-07 22:58:00,67.0,-99.9,30.03,North,-999,-999.0,-999.0,-999,-99.99,,,-99.99,,2013-04-08 03:58:00,
2013-04-07 23:13:00,67.0,-99.9,30.03,SE,131,9.0,13.0,-999,-99.99,,,-99.99,,2013-04-08 04:13:00,
2013-04-07 23:23:00,67.0,-99.9,30.03,SE,129,9.0,11.0,-999,-99.99,,,-99.99,,2013-04-08 04:23:00,
2013-04-07 23:34:00,67.0,-99.9,30.02,SE,132,10.0,12.0,-999,-99.99,,,-99.99,,2013-04-08 04:34:00,
2013-04-07 23:45:00,67.0,-99.9,30.02,SE,132,10.0,14.0,-999,-99.99,,,-99.99,,2013-04-08 04:45:00,
2013-04-07 23:53:00,67.0,-99.9,30.02,North,-999,-999.0,-999.0,-999,-99.99,,,-99.99,,2013-04-08 04:53:00,